Regional Weather Roundup
Issued by NWS

Home | Current Version | Previous Version | Text Only | Print | Product List | Glossary On
Versions: 1 2 3 4 5 6 7 8 9 10 11 12 13 14 15 16 17 18 19 20 21 22 23 24 25 26 27
000
ASUS45 KREV 240310
RWRNV
NEVADA REGIONAL WEATHER ROUNDUP
NATIONAL WEATHER SERVICE RENO NV
800 PM PDT SAT SEP 23 2017

NOTE: "FAIR" INDICATES FEW OR NO CLOUDS BELOW 12,000 FEET WITH NO
SIGNIFICANT WEATHER AND/OR OBSTRUCTIONS TO VISIBILITY.

NVZ001-003-004-240400-
WESTERN NEVADA

CITY           SKY/WX    TMP DP  RH WIND       PRES   REMARKS
RENO           PTCLDY    54  22  28 NE9       30.04R
CARSON CITY    FAIR      50  19  29 NE9       30.04S
MINDEN         FAIR      43  21  42 CALM      30.04R
SLIDE MTN        N/A     30  21  69 N12         N/A
FALLON         CLEAR     49  29  46 E6        30.03R
LOVELOCK       PTCLDY    49  24  37 N7        30.03R
HAWTHORNE      CLEAR     50  23  34 NW10      30.03R
$$

NVZ002-CAZ072-073-240400-
NORTHERN AND CENTRAL SIERRA

CITY           SKY/WX    TMP DP  RH WIND       PRES   REMARKS
S. LAKE TAHOE  CLEAR     38  25  59 CALM      30.05R
TRUCKEE        CLEAR     36  28  75 CALM      30.07R
SQUAW VLY 8000   N/A     34  23  64 NE3         N/A
SUSANVILLE     CLOUDY    54  23  30 CALM      30.03
BLUE CANYON    CLEAR     48  24  39 NE7       30.03R
MAMMOTH LAKES  FAIR      40  19  43 W10       30.05R
BRIDGEPORT     FAIR      38  22  52 CALM      30.04R
$$

NVZ030-031-036-240400-
NORTHERN NEVADA

CITY           SKY/WX    TMP DP  RH WIND       PRES   REMARKS
ELKO           PTCLDY    43  30  60 E5        30.02R
WINNEMUCCA     CLOUDY    53  26  35 CALM      30.04R
WENDOVER       MOCLDY    49  30  48 N6        30.00R
$$

NVZ035-037-240400-
CENTRAL NEVADA

CITY           SKY/WX    TMP DP  RH WIND       PRES   REMARKS
ELY            PTCLDY    37  30  75 NW9       30.02R
EUREKA           N/A     39  29  67 CALM      30.03R
$$

NVZ013-014-240400-
SOUTH CENTRAL NEVADA

CITY           SKY/WX    TMP DP  RH WIND       PRES   REMARKS
TONOPAH        CLEAR     49  33  54 N10       30.01R
$$

NVZ017-020-022-240400-
SOUTHERN NEVADA

CITY           SKY/WX    TMP DP  RH WIND       PRES   REMARKS
LAS VEGAS      PTCLDY    66  29  24 NE13      29.87R
N. LAS VEGAS   CLEAR     66  25  21 VRB5      29.86R
NELLIS AFB     CLEAR     66  32  28 N18       29.85R
HENDERSON      CLEAR     64  26  23 NE9       29.89R
MERCURY        CLEAR     61  20  20 NE8       29.90R
$$




USA.gov is the U.S. government's official web portal to all federal, state and local government web resources and services.